Regional Weather Roundup
Issued by NWS

Home | Current Version | Previous Version | Graphics & Text | Print | Product List | Glossary On
Versions: 1 2 3 4 5 6 7 8 9 10 11 12 13 14 15 16 17 18 19 20 21 22 23 24 25 26 27 28 29 30 31 32 33 34 35 36 37 38 39 40 41 42 43 44 45 46 47 48 49 50
764
ASUS43 KOAX 260702
RWRNE

WEATHER ROUNDUP FOR NEBRASKA
NATIONAL WEATHER SERVICE OMAHA NE
200 AM CDT WED APR 26 2017

NOTES: SATELLITE DATA IS BEING USED TO AUGMENT CLOUD COVER ABOVE
       12000 FEET.
       "FAIR" INDICATES FEW OR NO CLOUDS BELOW 12,000 FEET WITH NO
       SIGNIFICANT WEATHER AND/OR OBSTRUCTIONS TO VISIBILITY.

  * THESE STATIONS DO NOT REPORT WEATHER SUCH AS RAIN...SNOW OR FOG.

NEZ001>004-019>022-054>056-260800-
NEBRASKA PANHANDLE

CITY           SKY/WX    TMP DP  RH WIND       PRES   REMARKS
SCOTTSBLUFF    CLOUDY    32  26  78 W6        29.86F WCI  26
ALLIANCE       CLOUDY    28  23  81 N15       29.85S WCI  16
CHADRON        CLOUDY    29  26  89 N6        29.89F WCI  23
KIMBALL        CLOUDY    31  31 100 NW10      29.83F WCI  22
SIDNEY         CLOUDY    28  25  88 N13       29.83S WCI  17
$$

NEZ057>060-069>072-079>082-260800-
SOUTHWEST NEBRASKA

CITY           SKY/WX    TMP DP  RH WIND       PRES   REMARKS
NORTH PLATTE   CLOUDY    34  26  72 NW16G28   29.79F WCI  24
IMPERIAL       CLOUDY    34  26  72 N21G28    29.81R WCI  22
LEXINGTON      CLOUDY    35  30  82 N22G30    29.76S WCI  23
MCCOOK         CLOUDY    37  29  72 N24G35    29.76F WCI  26
OGALLALA       CLOUDY    34  28  79 NW15      29.81F WCI  25
$$

NEZ005>010-023>029-035>040-094-260800-
NORTH CENTRAL NEBRASKA

CITY           SKY/WX    TMP DP  RH WIND       PRES   REMARKS
VALENTINE      CLOUDY    31  24  75 NW14      29.82F WCI  21
AINSWORTH      CLOUDY    31  29  93 N22G28    29.80S WCI  18
BROKEN BOW     CLOUDY    33  28  81 N25G32    29.75S WCI  20
O`NEILL        CLOUDY    33  31  93 NW18G28   29.75S FOG     WCI  22
ORD            CLOUDY    34  30  85 NW21G32   29.73S WCI  22
THEDFORD       CLOUDY    32  27  83 NW20G28   29.80F WCI  20
$$

NEZ041-046>049-061>064-073>077-083>087-260800-
SOUTH CENTRAL NEBRASKA

CITY           SKY/WX    TMP DP  RH WIND       PRES   REMARKS
GRAND ISLAND   CLOUDY    36  34  92 NW25G31   29.70S WCI  24
AURORA         CLOUDY    37  33  87 N26G35    29.68S WCI  25
HASTINGS       CLOUDY    37  33  85 N22       29.70R WCI  26
HEBRON         CLOUDY    39  34  82 N16G26    29.66R WCI  30
HOLDREGE       CLOUDY    36  31  85 N21G26    29.72S WCI  24
KEARNEY *      CLOUDY    36  28  75 N23G33    29.72S WCI  24
YORK           CLOUDY    37  34  87 N17G26    29.66S WCI  28
$$

NEZ011>018-030>034-042>045-260800-
NORTHEAST NEBRASKA

CITY           SKY/WX    TMP DP  RH WIND       PRES   REMARKS
NORFOLK        CLOUDY    34  31  88 NW21G31   29.67F WCI  22
ALBION         CLOUDY    36  32  85 N17G31    29.69F WCI  25
BLAIR          CLOUDY    39  37  92 NW17G26   29.59S WCI  29
FREMONT        CLOUDY    37  37  97 NW21      29.64R WCI  27
TEKAMAH        CLOUDY    39  36  89 NW22      29.61F WCI  29
WAYNE          CLOUDY    35  34  99 NW17G25   29.66F FOG     WCI  24
$$

NEZ050>053-065>068-078-088>093-260800-
SOUTHEAST NEBRASKA

CITY           SKY/WX    TMP DP  RH WIND       PRES   REMARKS
LINCOLN        CLOUDY    39  34  82 N20       29.63S WCI  29
OMAHA EPPLEY   CLOUDY    41  36  82 N17       29.59R
BEATRICE       CLOUDY    40  37  87 N17G24    29.62F WCI  31
FALLS CITY     CLOUDY    44  39  82 NW16G25   29.57R
NEBRASKA CITY  CLOUDY    41  37  87 N22G29    29.57F
PLATTSMOUTH    CLOUDY    41  36  84 NW17G25   29.58F
$$

NEZ044-045-051>053-067-260800-
OMAHA AREA

CITY           SKY/WX    TMP DP  RH WIND       PRES   REMARKS
OMAHA EPPLEY   CLOUDY    41  36  82 N17       29.59R
BLAIR          CLOUDY    39  37  92 NW17G26   29.59S WCI  29
FREMONT        CLOUDY    37  37  97 NW21      29.64R WCI  27
MILLARD        CLOUDY    41  38  89 NW13G22   29.61S
OFFUTT AFB     CLOUDY    41  37  85 NW16      29.59R
PLATTSMOUTH    CLOUDY    41  36  84 NW17G25   29.58F
WAHOO          CLOUDY    38  34  87 NW21G30   29.62R WCI  27
$$




USA.gov is the U.S. government's official web portal to all federal, state and local government web resources and services.